HAWK142 KLAX-KLAX

Flight info

Callsign HAWK142
Flight time 0h 1m
Altitude VFR
Route
Aircraft H60/M-VGD/C

Departure

Time 2026-04-21 01:57
Airport Los Angeles International Airport (KLAX)

Arrival

Time 2026-04-21 01:59
Airport Los Angeles International Airport (KLAX)
Time Latitude Longitude Altitude Speed Heading
2026-04-21 01:54 33.94143 -118.38847 100 ft 0 kts 216°
2026-04-21 01:57 33.94138 -118.38878 133 ft 11 kts 219°
2026-04-21 01:57 33.94090 -118.39072 394 ft 43 kts 242°
2026-04-21 01:57 33.93873 -118.39481 774 ft 74 kts 246°
2026-04-21 01:58 33.93914 -118.40166 982 ft 95 kts 271°
2026-04-21 01:58 33.93919 -118.41120 816 ft 130 kts 261°
2026-04-21 01:58 33.93791 -118.42182 609 ft 121 kts 255°
2026-04-21 01:58 33.93658 -118.43031 502 ft 87 kts 254°
2026-04-21 01:59 33.93599 -118.43652 467 ft 55 kts 255°
2026-04-21 01:59 33.93664 -118.43809 412 ft 32 kts 259°
2026-04-21 01:59 33.93830 -118.43623 850 ft 33 kts 359°
2026-04-21 01:59 33.93911 -118.44013 1299 ft 70 kts 295°
2026-04-21 02:00 33.94312 -118.44380 2027 ft 87 kts 341°
2026-04-21 02:00 33.94858 -118.44801 2656 ft 109 kts 319°
2026-04-21 02:00 33.95347 -118.45580 3235 ft 127 kts 306°
2026-04-21 02:00 33.95687 -118.46636 3707 ft 144 kts 283°
2026-04-21 02:01 33.95715 -118.47869 4201 ft 152 kts 264°
2026-04-21 02:01 33.96207 -118.48949 4536 ft 164 kts 329°
2026-04-21 02:01 33.97230 -118.49526 5032 ft 165 kts 335°
2026-04-21 02:01 33.98280 -118.49939 5151 ft 171 kts 343°
2026-04-21 02:02 33.99578 -118.50184 4354 ft 187 kts 347°
2026-04-21 02:02 34.00767 -118.50713 4347 ft 178 kts 333°
2026-04-21 02:02 34.01898 -118.51318 4287 ft 177 kts 332°
2026-04-21 02:02 34.03027 -118.51913 4217 ft 176 kts 332°
2026-04-21 02:03 34.04149 -118.52502 4150 ft 176 kts 332°
2026-04-21 02:03 34.05283 -118.53103 4084 ft 176 kts 332°
2026-04-21 02:03 34.06218 -118.53598 4031 ft 175 kts 332°
2026-04-21 02:03 33.70241 -118.37279 781 ft 53 kts 220°
2026-04-21 02:04 33.69953 -118.37534 1326 ft 51 kts 220°
2026-04-21 02:04 33.69606 -118.37817 1773 ft 77 kts 220°
2026-04-21 02:04 33.69096 -118.38227 2144 ft 100 kts 214°
2026-04-21 02:04 33.68500 -118.38854 2272 ft 126 kts 229°
2026-04-21 02:05 33.67923 -118.39689 1441 ft 162 kts 227°
2026-04-21 02:05 33.67171 -118.40662 654 ft 151 kts 224°
2026-04-21 02:05 33.66458 -118.41486 316 ft 133 kts 217°
2026-04-21 02:05 33.65855 -118.42116 75 ft 94 kts 225°
2026-04-21 02:06 33.65674 -118.42361 69 ft 19 kts 234°
2026-04-21 02:06 33.65584 -118.42486 69 ft 19 kts 234°
2026-04-21 02:06 33.65494 -118.42608 69 ft 19 kts 234°
2026-04-21 02:06 33.65400 -118.42738 69 ft 19 kts 234°
2026-04-21 02:07 33.65305 -118.42867 69 ft 19 kts 234°
2026-04-21 02:07 33.65209 -118.42999 69 ft 19 kts 234°
2026-04-21 02:07 33.65113 -118.43130 69 ft 19 kts 234°
2026-04-21 02:07 33.65019 -118.43261 69 ft 19 kts 234°
2026-04-21 02:08 33.64926 -118.43388 69 ft 19 kts 234°
2026-04-21 02:08 33.64835 -118.43516 75 ft 26 kts 236°
2026-04-21 02:08 33.64905 -118.43652 422 ft 49 kts 15°
2026-04-21 02:08 33.65151 -118.43564 754 ft 66 kts 18°